CAPE
1497 1186 1041 978 743 661 566 254 148 208 32 20 83 190 99 85 12 4 23 27 21 9
1167 1099 1352 1289 905 645 547 312 148 112 63 36 14 29 59 11 10 13 4 30 1 17
1266 1288 1015 1024 753 848 633 490 252 295 207 121 151 40 12 19 31 38 35 14 21 14
1098 1135 1095 959 901 820 512 272 228 54 80 9 11 21 19 2 0 8 17 14 21 14
922 1135 971 982 927 718 247 217 133 139 16 12 27 5 1 0 11 5 11 2 10 15
503 989 889 778 507 578 408 235 1 11 0 0 0 0 0 1 3 10 8 7 19 35
246 568 494 523 699 404 326 99 1 2 1 0 0 0 0 0 5 8 3 45 48 40
238 387 433 512 516 428 208 1 2 4 12 0 0 0 0 5 2 0 8 47 25 7
123 78 151 281 175 376 107 1 0 6 4 5 0 0 6 0 1 0 40 45 0 37
12 15 183 167 481 267 58 6 1 3 1 3 0 4 7 4 1 1 3 0 7 14
14 13 22 44 63 66 37 13 5 5 5 7 1 8 17 8 10 7 0 0 1 5
0 3 7 13 11 47 28 53 18 21 15 21 5 7 4 13 26 24 11 0 3 0
0 0 0 10 7 6 36 19 27 42 30 26 7 2 13 13 21 16 15 15 22 9
0 1 2 1 5 8 18 32 66 42 57 32 9 6 14 1 10 9 21 6 19 26
CIN
-15 -19 -36 -62 -104 -130 -120 -193 -249 -152 -214 -171 -90 -40 -26 -13 0 -0 -3 -3 -1 -7
-33 -18 -3 -18 -41 -116 -121 -175 -243 -209 -204 -137 -101 -49 -25 0 -0 -0 -8 0 -2 -0
-0 -4 -6 -6 -31 -47 -80 -104 -165 -118 -119 -113 -81 -24 0 0 -1 -0 0 -1 0 0
-0 -1 -0 -2 -5 -15 -70 -119 -130 -188 -138 -70 -2 -22 0 -0 0 -0 0 -0 0 0
-2 0 0 0 -3 -15 -81 -85 -157 -121 -202 -2 0 0 0 0 -68 -0 -1 0 0 -3
-5 -0 0 -0 -20 -21 -51 -57 -0 -175 0 0 0 0 0 0 -1 -0 -1 0 0 0
-9 0 -7 -2 0 -27 -43 -107 0 0 0 0 0 0 0 -0 -0 0 0 0 -0 0
-6 -1 -1 0 0 -12 -37 -3 -0 0 -144 0 0 0 -1 0 0 0 0 0 0 -0
-2 -4 -2 0 -10 -5 -39 0 0 0 -1 -36 0 0 -1 0 -2 0 0 0 0 -2
-39 -6 -6 -5 -0 -8 -29 -28 -3 -6 0 -0 0 -3 0 -0 -0 -0 0 0 0 0
-6 -4 -0 -25 -35 -34 -41 -68 -53 -17 -3 -164 -0 -0 0 -1 0 -1 -1 -0 -0 0
0 -0 -2 0 -2 -6 -13 -29 -46 -1 -83 -105 0 -1 -0 0 0 0 -0 -0 -2 0
0 0 -0 -1 -1 -18 -5 -11 -28 -24 -46 -76 0 0 -0 0 -1 0 0 -0 0 -0
0 0 0 0 0 -0 -1 -10 -10 -6 -25 -49 0 0 -2 -0 0 0 -6 0 0 0
Wind_Speed
38 38 34 33 34 30 30 32 29 26 nan nan nan 29 nan nan nan nan nan nan nan nan
38 38 39 37 35 31 33 33 31 29 nan nan nan nan nan nan nan nan nan nan nan nan
39 42 43 40 35 35 36 38 36 31 30 30 31 nan nan nan nan nan nan nan nan nan
36 41 42 38 36 38 41 41 36 nan nan nan nan nan nan nan nan nan nan nan nan nan
35 36 40 38 38 39 42 41 35 32 nan nan nan nan nan nan nan nan nan nan nan nan
39 40 41 40 40 39 42 43 nan nan nan nan nan nan nan nan nan nan nan nan nan nan
42 42 42 40 42 42 43 nan nan nan nan nan nan nan nan nan nan nan nan nan nan nan
44 43 38 38 40 39 36 nan nan nan nan nan nan nan nan nan nan nan nan nan nan nan
44 nan 45 38 35 32 34 nan nan nan nan nan nan nan nan nan nan nan nan nan nan nan
nan nan 41 40 36 29 nan nan nan nan nan nan nan nan nan nan nan nan nan nan nan nan
nan nan nan nan nan nan nan nan nan nan nan nan nan nan nan nan nan nan nan nan nan nan
nan nan nan nan nan nan nan nan nan nan nan nan nan nan nan nan nan nan nan nan nan nan
nan nan nan nan nan nan nan nan nan nan nan nan nan nan nan nan nan nan nan nan nan nan
nan nan nan nan nan nan nan nan nan nan nan nan nan nan nan nan nan nan nan nan nan nan
Wind_Direction
260 261 262 265 265 272 279 282 288 297 nan nan nan 301 nan nan nan nan nan nan nan nan
253 256 257 264 268 273 279 278 287 295 nan nan nan nan nan nan nan nan nan nan nan nan
248 252 252 253 258 265 268 272 275 285 294 299 303 nan nan nan nan nan nan nan nan nan
244 249 252 253 255 261 265 268 273 nan nan nan nan nan nan nan nan nan nan nan nan nan
244 248 254 258 256 260 265 268 275 278 nan nan nan nan nan nan nan nan nan nan nan nan
245 250 253 255 255 258 264 268 nan nan nan nan nan nan nan nan nan nan nan nan nan nan
238 241 246 250 255 257 261 nan nan nan nan nan nan nan nan nan nan nan nan nan nan nan
233 233 237 244 254 257 264 nan nan nan nan nan nan nan nan nan nan nan nan nan nan nan
231 nan 230 234 253 260 262 nan nan nan nan nan nan nan nan nan nan nan nan nan nan nan
nan nan 232 229 235 256 nan nan nan nan nan nan nan nan nan nan nan nan nan nan nan nan
nan nan nan nan nan nan nan nan nan nan nan nan nan nan nan nan nan nan nan nan nan nan
nan nan nan nan nan nan nan nan nan nan nan nan nan nan nan nan nan nan nan nan nan nan
nan nan nan nan nan nan nan nan nan nan nan nan nan nan nan nan nan nan nan nan nan nan
nan nan nan nan nan nan nan nan nan nan nan nan nan nan nan nan nan nan nan nan nan nan